MDT,Max TemperatureF,Mean TemperatureF,Min TemperatureF,Max Dew PointF,MeanDew PointF,Min DewpointF,Max Humidity, Mean Humidity, Min Humidity, Max Sea Level PressureIn, Mean Sea Level PressureIn, Min Sea Level PressureIn, Max VisibilityMiles, Mean VisibilityMiles, Min VisibilityMiles, Max Wind SpeedMPH, Mean Wind SpeedMPH, Max Gust SpeedMPH,PrecipitationIn, CloudCover, Events, WindDirDegrees
2013-8-1,83,72,60,56,52,48,78,56,33,30.05,29.92,29.75,10,10,0,52,12,59,0.18,4,Rain-Thunderstorm,31
2013-8-2,74,66,58,58,56,54,93,73,53,30.05,29.95,29.88,10,10,10,18,9,22,0.01,5,Fog-Rain-Thunderstorm,34
2013-8-3,80,68,55,58,57,54,100,73,45,30.15,30.07,29.94,10,8,0,20,8,26,0.00,5,Fog,17
2013-8-4,84,70,56,58,55,52,100,67,34,30.10,29.99,29.91,10,10,10,17,7,23,0.00,2,Fog,10
2013-8-5,92,77,61,58,51,41,73,46,18,29.97,29.89,29.77,10,10,10,39,8,50,T,2,Rain-Thunderstorm,303
2013-8-6,87,72,57,51,47,41,75,49,22,29.98,29.93,29.89,10,10,10,23,9,30,T,1,,314
2013-8-7,89,73,57,52,47,41,67,45,22,29.99,29.94,29.84,10,10,10,24,7,31,0.00,1,,26
2013-8-8,83,70,56,52,51,49,77,55,33,30.09,29.99,29.95,10,10,10,22,11,27,T,2,Rain-Thunderstorm,37
2013-8-9,79,69,58,60,53,47,90,67,43,30.14,30.07,30.04,10,10,10,18,9,24,T,4,Rain-Thunderstorm,58
2013-8-10,84,71,57,58,54,45,93,63,32,30.10,30.01,29.95,10,10,9,16,6,19,0.00,1,Fog,330
2013-8-11,87,73,58,56,50,45,65,44,23,30.04,29.99,29.94,10,10,10,16,7,21,0.00,1,,39
2013-8-12,90,75,59,55,50,46,69,48,26,30.17,30.00,29.93,10,10,10,25,9,33,T,2,Rain-Thunderstorm,33
2013-8-13,86,73,59,53,48,42,64,47,30,30.10,30.04,30.01,10,10,10,18,9,25,0.00,2,,249
2013-8-14,90,75,60,50,46,36,60,38,15,30.05,29.99,29.90,10,10,10,22,10,27,0.00,1,,248
2013-8-15,92,75,57,51,46,38,67,41,15,30.03,29.96,29.90,10,10,10,15,6,19,0.00,0,,18
2013-8-16,93,76,59,50,45,37,57,38,19,29.94,29.88,29.81,10,10,10,14,7,17,0.00,1,,185
2013-8-17,92,79,65,48,43,37,38,29,19,29.94,29.87,29.80,10,10,10,15,9,19,0.00,0,,4
2013-8-18,90,77,63,50,47,45,52,38,23,29.98,29.88,29.82,10,10,10,17,8,22,0.00,0,,136
2013-8-19,99,81,63,49,41,28,48,29,9,29.93,29.84,29.75,10,10,10,22,8,27,0.00,0,,233
2013-8-20,94,80,65,43,37,31,33,23,12,29.90,29.83,29.76,10,10,10,17,6,20,0.00,0,,241
2013-8-21,85,74,62,47,43,37,45,33,21,30.03,29.98,29.83,10,10,10,21,11,26,0.00,1,,33
2013-8-22,90,75,59,54,50,45,60,45,30,30.07,29.96,29.83,10,10,10,13,6,15,0.00,2,,24
2013-8-23,95,81,66,53,49,37,63,39,14,29.83,29.76,29.66,10,10,10,39,11,45,T,3,,236
2013-8-24,88,78,68,55,49,40,59,41,23,29.91,29.82,29.75,10,10,10,24,8,30,T,4,,252
2013-8-25,92,79,65,51,45,36,56,35,14,29.96,29.88,29.82,10,10,10,18,6,25,T,1,,181
2013-8-26,94,84,73,48,44,38,41,28,15,29.96,29.84,29.79,10,10,10,16,8,20,0.00,3,,219
2013-8-27,91,79,67,52,47,44,48,34,20,29.98,29.90,29.83,10,10,10,16,7,20,0.00,2,,261
2013-8-28,95,80,65,53,51,47,63,42,20,29.96,29.87,29.78,10,10,10,31,6,47,T,2,,240
2013-8-29,92,77,62,56,53,46,72,50,27,30.06,29.99,29.94,10,10,10,26,9,38,T,0,Thunderstorm,221
2013-8-30,95,79,63,56,49,38,72,45,17,30.03,29.92,29.83,10,10,10,17,9,23,T,1,,245
2013-8-31,83,73,62,48,42,38,48,35,21,30.13,30.02,29.88,10,10,10,20,8,24,T,1,,27